Stündliche Wetter Cayo de Willy

Heute, 18 Januar, Montag

Zeit Temperatur Niederschläge Wind Luftdruck Luftfeuchtigkeit
00:00 +24°C° 0 mm 1 m/S 762 mmHg 92%
01:00 +24°C° 0 mm 1 m/S 761 mmHg 93%
02:00 +24°C° 0.1 mm 1 m/S 761 mmHg 93%
03:00 +24°C° 0.1 mm 1 m/S 761 mmHg 94%
04:00 +24°C° 0.1 mm 1 m/S 761 mmHg 94%
05:00 +24°C° 0.2 mm 1 m/S 762 mmHg 94%
06:00 +24°C° 0.2 mm 1 m/S 762 mmHg 94%
07:00 +25°C° 0.2 mm 1 m/S 763 mmHg 94%
08:00 +26°C° 0.1 mm 1 m/S 763 mmHg 87%
09:00 +26°C° 0.1 mm 0 m/S 764 mmHg 81%
10:00 +27°C° 0.1 mm 0 m/S 764 mmHg 74%
11:00 +28°C° 0.1 mm 0 m/S 764 mmHg 71%
12:00 +30°C° 0.1 mm 1 m/S 763 mmHg 68%
13:00 +31°C° 0.1 mm 1 m/S 763 mmHg 65%
14:00 +30°C° 0.3 mm 1 m/S 762 mmHg 71%
15:00 +29°C° 0.3 mm 1 m/S 762 mmHg 76%
16:00 +28°C° 0.3 mm 2 m/S 761 mmHg 81%
17:00 +27°C° 0.1 mm 1 m/S 762 mmHg 85%
18:00 +26°C° 0.1 mm 1 m/S 762 mmHg 88%
19:00 +25°C° 0.1 mm 1 m/S 763 mmHg 92%
20:00 +25°C° 0 mm 1 m/S 763 mmHg 92%
21:00 +25°C° 0 mm 2 m/S 763 mmHg 93%
22:00 +25°C° 0 mm 2 m/S 763 mmHg 93%
23:00 +25°C° 0 mm 2 m/S 763 mmHg 93%

Morgen, 19 Januar, Dienstag

Zeit Temperatur Niederschläge Wind Luftdruck Luftfeuchtigkeit
00:00 +24°C° 0 mm 2 m/S 763 mmHg 92%
01:00 +24°C° 0 mm 2 m/S 763 mmHg 91%
02:00 +24°C° 0 mm 2 m/S 762 mmHg 92%
03:00 +24°C° 0 mm 2 m/S 762 mmHg 92%
04:00 +24°C° 0 mm 2 m/S 762 mmHg 92%
05:00 +24°C° 0 mm 1 m/S 763 mmHg 92%
06:00 +24°C° 0 mm 1 m/S 763 mmHg 91%
07:00 +24°C° 0 mm 1 m/S 764 mmHg 91%
08:00 +25°C° 0 mm 2 m/S 764 mmHg 83%
09:00 +27°C° 0 mm 2 m/S 764 mmHg 76%
10:00 +28°C° 0 mm 2 m/S 765 mmHg 69%
11:00 +29°C° 0 mm 2 m/S 764 mmHg 67%
12:00 +29°C° 0 mm 3 m/S 764 mmHg 64%
13:00 +30°C° 0 mm 3 m/S 763 mmHg 61%
14:00 +29°C° 0 mm 3 m/S 763 mmHg 65%
15:00 +29°C° 0 mm 3 m/S 762 mmHg 68%
16:00 +28°C° 0 mm 3 m/S 762 mmHg 72%
17:00 +27°C° 0.1 mm 3 m/S 763 mmHg 78%
18:00 +26°C° 0.1 mm 3 m/S 763 mmHg 84%
19:00 +25°C° 0.1 mm 3 m/S 764 mmHg 90%
20:00 +25°C° 0.2 mm 3 m/S 764 mmHg 90%
21:00 +25°C° 0.2 mm 3 m/S 764 mmHg 91%
22:00 +25°C° 0.2 mm 3 m/S 764 mmHg 92%
23:00 +25°C° 0.1 mm 3 m/S 764 mmHg 92%

übermorgen, 20 Januar, Mittwoch

Zeit Temperatur Niederschläge Wind Luftdruck Luftfeuchtigkeit
00:00 +25°C° 0.1 mm 3 m/S 763 mmHg 92%
01:00 +25°C° 0.1 mm 3 m/S 763 mmHg 92%
02:00 +25°C° 0.1 mm 3 m/S 763 mmHg 92%
03:00 +25°C° 0.1 mm 3 m/S 762 mmHg 92%
04:00 +25°C° 0.1 mm 3 m/S 762 mmHg 92%
05:00 +25°C° 0.1 mm 3 m/S 762 mmHg 92%
06:00 +25°C° 0.1 mm 3 m/S 763 mmHg 91%
07:00 +25°C° 0.1 mm 2 m/S 763 mmHg 91%
08:00 +26°C° 0.1 mm 3 m/S 763 mmHg 85%
09:00 +28°C° 0.1 mm 3 m/S 763 mmHg 78%
10:00 +29°C° 0.1 mm 3 m/S 763 mmHg 71%
11:00 +29°C° 0.1 mm 3 m/S 763 mmHg 72%
12:00 +29°C° 0.1 mm 3 m/S 762 mmHg 72%
13:00 +29°C° 0.1 mm 3 m/S 761 mmHg 72%
14:00 +28°C° 0.5 mm 3 m/S 761 mmHg 77%
15:00 +27°C° 0.5 mm 2 m/S 761 mmHg 82%
16:00 +26°C° 0.5 mm 2 m/S 761 mmHg 87%
17:00 +26°C° 0.1 mm 2 m/S 761 mmHg 89%
18:00 +25°C° 0.1 mm 2 m/S 761 mmHg 90%
19:00 +25°C° 0.1 mm 1 m/S 762 mmHg 92%
20:00 +25°C° 0.1 mm 1 m/S 762 mmHg 93%
21:00 +25°C° 0.1 mm 1 m/S 762 mmHg 93%
22:00 +24°C° 0.1 mm 1 m/S 762 mmHg 94%
23:00 +24°C° 0.4 mm 1 m/S 762 mmHg 94%

21 Januar, Donnerstag

Zeit Temperatur Niederschläge Wind Luftdruck Luftfeuchtigkeit
00:00 +24°C° 0.4 mm 1 m/S 762 mmHg 94%
01:00 +24°C° 0.4 mm 1 m/S 761 mmHg 95%
02:00 +24°C° 0.4 mm 1 m/S 761 mmHg 95%
03:00 +24°C° 0.4 mm 1 m/S 761 mmHg 95%
04:00 +24°C° 0.4 mm 1 m/S 761 mmHg 95%
05:00 +24°C° 0.2 mm 1 m/S 761 mmHg 95%
06:00 +24°C° 0.2 mm 1 m/S 762 mmHg 95%
07:00 +24°C° 0.2 mm 1 m/S 762 mmHg 95%
08:00 +25°C° 0.2 mm 1 m/S 762 mmHg 91%
09:00 +26°C° 0.2 mm 1 m/S 762 mmHg 86%
10:00 +27°C° 0.2 mm 1 m/S 762 mmHg 82%
11:00 +28°C° 0.5 mm 1 m/S 762 mmHg 81%
12:00 +28°C° 0.5 mm 2 m/S 761 mmHg 80%
13:00 +28°C° 0.5 mm 2 m/S 761 mmHg 79%
14:00 +27°C° 0.3 mm 2 m/S 760 mmHg 81%
15:00 +27°C° 0.3 mm 2 m/S 760 mmHg 83%
16:00 +27°C° 0.3 mm 2 m/S 760 mmHg 85%
17:00 +26°C° 0.2 mm 2 m/S 761 mmHg 87%
18:00 +25°C° 0.2 mm 2 m/S 761 mmHg 90%
19:00 +25°C° 0.2 mm 2 m/S 761 mmHg 93%
20:00 +25°C° 0.1 mm 2 m/S 762 mmHg 93%
21:00 +24°C° 0.1 mm 2 m/S 762 mmHg 94%
22:00 +24°C° 0.1 mm 2 m/S 762 mmHg 94%
23:00 +24°C° 0.1 mm 2 m/S 762 mmHg 94%

22 Januar, Freitag

Zeit Temperatur Niederschläge Wind Luftdruck Luftfeuchtigkeit
00:00 +24°C° 0.1 mm 2 m/S 761 mmHg 94%
01:00 +24°C° 0.1 mm 2 m/S 761 mmHg 95%
02:00 +24°C° 0.2 mm 1 m/S 761 mmHg 95%
03:00 +24°C° 0.2 mm 1 m/S 761 mmHg 94%
04:00 +24°C° 0.2 mm 1 m/S 761 mmHg 94%
05:00 +24°C° 0.3 mm 1 m/S 761 mmHg 94%
06:00 +24°C° 0.3 mm 1 m/S 762 mmHg 94%
07:00 +24°C° 0.3 mm 1 m/S 762 mmHg 94%
08:00 +25°C° 0.1 mm 1 m/S 762 mmHg 89%
09:00 +27°C° 0.1 mm 1 m/S 763 mmHg 83%
10:00 +28°C° 0.1 mm 1 m/S 763 mmHg 78%
11:00 +28°C° 0.1 mm 1 m/S 763 mmHg 75%
12:00 +29°C° 0.1 mm 2 m/S 762 mmHg 72%
13:00 +29°C° 0.1 mm 2 m/S 761 mmHg 69%
14:00 +29°C° 0 mm 2 m/S 761 mmHg 71%
15:00 +28°C° 0 mm 2 m/S 761 mmHg 73%
16:00 +28°C° 0 mm 2 m/S 761 mmHg 75%
17:00 +27°C° 0 mm 2 m/S 761 mmHg 80%
18:00 +26°C° 0 mm 2 m/S 761 mmHg 86%
19:00 +24°C° 0 mm 2 m/S 762 mmHg 92%
20:00 +24°C° 0 mm 2 m/S 762 mmHg 92%
21:00 +24°C° 0 mm 2 m/S 762 mmHg 93%
22:00 +24°C° 0 mm 2 m/S 762 mmHg 93%
23:00 +24°C° 0 mm 2 m/S 762 mmHg 93%

23 Januar, Samstag

Zeit Temperatur Niederschläge Wind Luftdruck Luftfeuchtigkeit
00:00 +24°C° 0 mm 1 m/S 762 mmHg 94%
01:00 +24°C° 0 mm 1 m/S 761 mmHg 94%
02:00 +24°C° 0 mm 1 m/S 761 mmHg 93%
03:00 +23°C° 0 mm 1 m/S 761 mmHg 93%
04:00 +23°C° 0 mm 1 m/S 761 mmHg 93%
05:00 +23°C° 0 mm 1 m/S 761 mmHg 92%
06:00 +23°C° 0 mm 1 m/S 762 mmHg 92%
07:00 +22°C° 0 mm 0 m/S 762 mmHg 92%
08:00 +25°C° 0 mm 1 m/S 762 mmHg 83%
09:00 +27°C° 0 mm 1 m/S 763 mmHg 74%
10:00 +29°C° 0 mm 1 m/S 763 mmHg 65%
11:00 +29°C° 0 mm 1 m/S 762 mmHg 64%
12:00 +29°C° 0 mm 2 m/S 762 mmHg 64%
13:00 +29°C° 0 mm 2 m/S 761 mmHg 64%
14:00 +29°C° 0 mm 2 m/S 761 mmHg 66%
15:00 +28°C° 0 mm 3 m/S 761 mmHg 69%
16:00 +28°C° 0 mm 3 m/S 760 mmHg 71%
17:00 +27°C° 0 mm 3 m/S 761 mmHg 76%
18:00 +26°C° 0 mm 2 m/S 761 mmHg 82%
19:00 +24°C° 0 mm 2 m/S 761 mmHg 87%
20:00 +24°C° 0 mm 2 m/S 762 mmHg 87%
21:00 +24°C° 0 mm 2 m/S 762 mmHg 86%
22:00 +24°C° 0 mm 2 m/S 762 mmHg 86%
23:00 +24°C° 0 mm 2 m/S 762 mmHg 86%
Mehr zeigen

Wir brauchen deine Erlaubnis

Meteoprog und unser Service Anbieter werden persönliche Daten aufbewahren, so wie Cookies, Geräte Bezeichnung oder ähnliche Technologien von deinem Gerät und Prozess, so wie Persönliche Daten Inhalte und Werbungen, genauso wie social Media und den Verkehr zu analysieren.

  • Aufbewahrung und/oder Zugang zu deiner Geräte Informationen.

    Cookies, Geräte Bezeichnung oder andere Informationen, können aufbewahrt oder Zugang zu deinem Gerät erhalten, für den Grund, der oben angegeben wird.

  • Personalisierte Werbung und Inhalte, Messungen, Einblick in das Publikum und Produkt Entwicklung.

    Werbungen und Inhalte können personalisiert werden, basierend auf ein Profil. Mehr Daten können besser personalisierte Werbungen und Inhalte hinzufügen. Werbung und Inhalte können gezeigt und gemessen werden. Einblicke über das Publikum, welche die Werbung gesehen haben und den Inhalt, können abgeleitet werden. So wie Daten können genutzt werden, um es zu verbessern oder die Benutzer Erfahrung zu verbessern das System und die Software.

Wenn du “Ich stimme zu” klickst, erlaubst du uns, die Cookies zu benutzen die Geräte Bezeichnung, den Web oder ähnliche Technologien zu benutzen. Deine Settings, können in deinem Gerät bei deinem Browser geändert werden.

Für den bestimmten Zweck, berechtigten Interessen beruhen darauf, mehr als auf den Inhalt. Du kannst mehr darüber in unseren Privaten und Cookie Politik lesen.